Voltar ao catálogo

STARLINK-37047

AtivoComunicaçõesVLEO
NORAD 68957·PAYLOAD·🇺🇸 United States

Lançado May 1, 2026 de Cape Canaveral Space Force Station

Loading…

Próximas Passagens (próximas 24 horas)

TLE

AtualizadoSource: CelesTrak SupGP

Época: Sep 14, 2026, 22:29 UTC

1 68957C 26099G   26257.93729167 -.00008334  00000+0 -24628-3 0  2578
2 68957  53.1576 101.9417 0001261  84.4681  93.9095 15.34388938    16

Acompanhe STARLINK-37047 em tempo real com AllMySat

Download on the App Store